STARLINK-4666, 53789

Orbit data source: Space-Track

STARLINK-4666, 53789 is a payload satellite owned by SpaceX/Seattle (US) in LEO that was launched on Sun, 11 Sep 2022 UTC via an FALCON 9 launch vehicle from the Air Force Eastern Test Range (AFETR). Payload-class satellites include a variety of spacecraft equipped with specific instruments for various scientific and technological missions. These include communications satellites like Starlink; space stations such as the ISS; scientific satellites like the Hubble; Earth observation satellites from companies like Planet Labs, Umbra, and HawkEye 360; GPS; miniature CubeSats for education and research; and military/defense satellites.

Loading next visibility...
Identifier
53789, 2022-111S
Orbit
LEO
Country
Flag of USUS
Related business
Manufacturer
SpaceX/Seattle
Mission
Operational Commercial Communications
Bus & Motor
STARLINK, Unknown motor
Mass
305 kg wet, ~290 kg dry
Launch date (UTC)
2022-09-11 (4 years ago)
Launch vehicle
FALCON 9
Launch site
Air Force Eastern Test Range (AFETR)
Object type
Payload
Rocket body
Debris
Shape & HBR
Box + 1 Pan, 10.1 m
Radar Cross Section
13.562 m², Large (>1 m²)

Expand to show TLE details & history
Last TLE update: 2 days ago

TLE from 2 days ago
0 STARLINK-4666
1 53789U 22111S   26171.31914309  .00003358  00000-0  22895-3 0  9994
2 53789  53.1580 173.0066 0001084  76.6032 283.5080 15.08840161209186
Epoch: 2026-06-20T07:39Z
TLE epoch observation values (Epoch: 2026-06-20T07:39:33.962Z)
Latitude
-0.00006°
Longitude
149.57957°
Altitude
540.459 km
Speed
7.593 km/s
True Right ascension
11h 32m 01s
True Declination
0° 00' 00"
Sunlit
Object was in daylight at epoch
Visualization orbit readout
Latitude
Unknown
Longitude
Unknown
Altitude
Unknown
Speed
Unknown
Apparent Right ascension
Unknown
Apparent Declination
Unknown
Sunlit
N/A
Visualization observer readout
Local Sidereal Time
21:38:17
Azimuth
Unknown
Elevation
Unknown
Doppler factor
Unknown
Orbital elements
Apogee altitude
540.747 km
Perigee altitude
539.247 km
Semi-major axis
6,918.134 km
Eccentricity
0.00011
Inclination
53.158°
RAAN
173.0066°
Arg. of periapsis
76.6032°
True anomaly
283.49592°
Mean anomaly
283.508°
Eccentric anomaly
283.50196°
Mean motion
3.7719 °/min
Orbital period
95.44 mins
BSTAR
0.00022895
Loading maneuver chart data...
Computing Atmospheric mass density...
Loading historical data...
Loading historical data...
Loading historical data...
Loading historical data...
Loading historical data...
Loading historical data...
Loading historical data...

Documentation

Showing up to 5 results
|